Tracking 29892 objects as of 21-Nov-2024
HD Live streaming from Space Station
objects crossing your sky now

COSMOS 2350

Track COSMOS 2350 now!
COSMOS 2350 is classified as:


NORAD ID: 25315
Int'l Code: 1998-025A
Perigee: 35,760.9 km
Apogee: 35,828.3 km
Inclination: 13.8 °
Period: 1,436.1 minutes
Semi major axis: 42165 km
RCS: 5 m2 (large)
Launch date: April 29, 1998
Source: Commonwealth of Independent States (former USSR) (CIS)
Launch site: TYURATAM MISSILE AND SPACE COMPLEX (TTMTR)
Your satellite tracking list
Your tracking list is empty




NASA's NSSDC Master Catalog

Two Line Element Set (TLE):
1 25315U 98025A   24325.67742118 -.00000168  00000-0  00000-0 0  9998
2 25315  13.7513   7.9383 0007984 165.1798 211.9404  1.00268772 97261
Source of the keplerian elements: AFSPC